Date,TemperatureHighF,TemperatureAvgF,TemperatureLowF,DewpointHighF,DewpointAvgF,DewpointLowF,HumidityHigh,HumidityAvg,HumidityLow,PressureMaxIn,PressureMinIn,WindSpeedMaxMPH,WindSpeedAvgMPH,GustSpeedMaxMPH,PrecipitationSumIn
2013-8-1,83.2,73.0,64.5,63.9,59.6,54.1,78,64,40,30.00,29.91,6,1,9,0.00
2013-8-2,82.2,71.2,62.6,67.7,61.3,55.6,78,70,56,29.94,29.85,7,2,11,0.04
2013-8-3,83.8,75.4,67.0,68.5,64.0,59.5,78,67,52,30.03,29.88,7,2,11,0.00
2013-8-4,77.2,69.1,60.3,59.8,56.0,50.7,78,64,45,30.11,30.02,5,1,7,0.00
2013-8-5,67.9,62.9,58.2,60.7,56.3,51.8,78,77,75,30.04,29.85,3,1,4,0.00
2013-8-6,86.6,74.2,67.2,70.2,64.1,60.2,78,70,52,29.87,29.80,5,1,9,0.00
2013-8-7,85.9,74.9,67.2,70.6,65.2,60.2,78,71,56,29.86,29.78,7,2,9,0.00
2013-8-8,82.0,73.4,66.1,70.7,65.4,59.6,78,75,63,29.88,29.78,4,1,6,0.11
2013-8-9,80.6,73.6,67.5,66.8,64.3,60.5,78,72,55,29.98,29.85,5,1,8,0.01
2013-8-10,86.7,75.2,68.1,65.5,62.2,57.8,77,64,43,30.05,29.97,6,2,11,0.00
2013-8-11,83.6,72.2,61.9,61.5,58.1,53.4,78,62,37,30.07,29.97,5,1,8,0.00
2013-8-12,81.8,71.7,61.7,70.4,63.9,55.4,78,75,63,30.01,29.82,4,0,5,0.05
2013-8-13,76.7,69.9,60.6,63.0,58.8,49.5,78,68,52,30.05,29.84,11,3,15,0.00
2013-8-14,70.5,61.9,53.6,51.7,47.9,45.0,78,61,43,30.12,30.04,8,2,11,0.00
2013-8-15,72.5,61.2,51.3,53.2,49.1,45.3,78,65,45,30.10,30.00,5,1,8,0.00
2013-8-16,74.9,65.1,53.2,55.0,51.5,47.2,78,62,43,30.07,30.01,6,2,9,0.00
2013-8-17,74.2,67.2,59.8,60.7,55.5,51.2,74,65,55,30.11,30.01,4,1,6,0.00
2013-8-18,80.4,69.6,61.2,64.4,58.8,54.5,78,68,49,30.09,29.99,3,1,6,0.00
2013-8-19,83.6,76.3,65.8,63.7,60.2,56.3,78,59,43,30.06,29.96,4,1,6,0.00
2013-8-20,86.4,73.2,62.6,68.8,61.8,56.0,78,68,48,30.05,29.96,4,0,5,0.00
2013-8-21,89.6,75.3,62.4,66.3,62.3,55.7,78,65,41,30.05,29.95,6,1,8,0.00
2013-8-22,91.0,77.9,66.8,69.5,65.2,60.3,78,66,44,30.03,29.92,6,2,8,0.00
2013-8-23,85.9,75.7,68.4,66.7,63.9,60.5,78,67,46,30.04,29.96,6,2,8,0.01
2013-8-24,86.9,74.7,63.5,65.6,61.2,55.5,78,64,37,30.14,30.03,5,1,9,0.00
2013-8-25,90.1,74.2,59.1,65.3,58.5,52.8,78,61,33,30.20,30.10,5,1,11,0.00
2013-8-26,93.1,78.2,65.4,70.4,65.2,58.3,78,65,36,30.15,30.00,6,2,10,0.00
2013-8-27,92.4,80.0,72.1,71.0,67.7,65.1,78,66,45,30.02,29.91,6,2,8,0.00
2013-8-28,95.2,81.2,70.2,68.3,65.0,60.8,78,60,34,29.95,29.88,8,2,11,0.00
2013-8-29,93.1,80.0,70.7,76.3,68.2,62.8,78,67,48,29.95,29.86,5,1,8,0.01
2013-8-30,98.2,82.4,69.3,72.2,67.6,62.7,78,63,37,29.89,29.74,6,2,9,0.00
2013-8-31,98.0,83.8,70.9,71.8,68.3,27.9,78,61,38,29.78,29.63,12,3,23,0.44